01-07-2022, 00:00:07,    204,    0.0,   10.2,   0.00,   0.00, 1010.7,   89.7, -999.0
01-07-2022, 00:00:17,    203,    0.0,   10.2,   0.00,   0.00, 1010.7,   89.7, -999.0
01-07-2022, 00:00:27,    204,    0.0,   10.1,   0.00,   0.00, 1010.7,   89.7, -999.0
01-07-2022, 00:00:37,    204,    0.0,   10.2,   0.00,   0.00, 1010.7,   89.7, -999.0
01-07-2022, 00:00:47,    204,    0.0,   10.2,   0.00,   0.00, 1010.7,   89.8, -999.0
01-07-2022, 00:00:57,    204,    0.0,   10.2,   0.00,   0.00, 1010.7,   89.8, -999.0
01-07-2022, 00:01:07,    203,    0.0,   10.2,   0.00,   0.00, 1010.7,   89.7, -999.0
01-07-2022, 00:01:17,    204,    0.0,   10.2,   0.00,   0.00, 1010.7,   89.8, -999.0
01-07-2022, 00:01:27,    203,    0.0,   10.2,   0.00,   0.00, 1010.7,   89.7, -999.0
01-07-2022, 00:01:36,    204,    0.0,   10.2,   0.00,   0.00, 1010.7,   89.7, -999.0
01-07-2022, 00:01:47,    204,    0.0,   10.2,   0.00,   0.00, 1010.7,   89.7, -999.0
01-07-2022, 00:01:57,    203,    0.0,   10.2,   0.00,   0.00, 1010.7,   89.7, -999.0
01-07-2022, 00:02:06,    203,    0.0,   10.1,   0.00,   0.00, 1010.7,   89.7, -999.0
01-07-2022, 00:02:17,    204,    0.0,   10.1,   0.00,   0.00, 1010.7,   89.7, -999.0
01-07-2022, 00:02:27,    204,    0.0,   10.2,   0.00,   0.00, 1010.7,   89.8, -999.0
01-07-2022, 00:02:36,    204,    0.0,   10.2,   0.00,   0.00, 1010.7,   89.8, -999.0
01-07-2022, 00:02:46,    204,    0.0,   10.1,   0.00,   0.00, 1010.7,   89.8, -999.0
01-07-2022, 00:02:57,    203,    0.0,   10.1,   0.00,   0.00, 1010.7,   89.8, -999.0
01-07-2022, 00:03:06,    203,    0.0,   10.2,   0.00,   0.00, 1010.6,   89.8, -999.0
01-07-2022, 00:03:16,    203,    0.0,   10.1,   0.00,   0.00, 1010.7,   89.8, -999.0
01-07-2022, 00:03:26,    204,    0.0,   10.1,   0.00,   0.00, 1010.7,   89.8, -999.0
01-07-2022, 00:03:36,    204,    0.0,   10.2,   0.00,   0.00, 1010.7,   89.8, -999.0
01-07-2022, 00:03:46,    203,    0.0,   10.2,   0.00,   0.00, 1010.7,   89.8, -999.0
01-07-2022, 00:03:56,    204,    0.0,   10.3,   0.00,   0.00, 1010.7,   89.8, -999.0
01-07-2022, 00:04:06,    204,    0.0,   10.2,   0.00,   0.00, 1010.7,   89.9, -999.0
01-07-2022, 00:04:16,    204,    0.0,   10.2,   0.00,   0.00, 1010.7,   89.9, -999.0
01-07-2022, 00:04:26,    204,    0.0,   10.2,   0.00,   0.00, 1010.7,   89.8, -999.0
01-07-2022, 00:04:36,    204,    0.0,   10.2,   0.00,   0.00, 1010.7,   89.9, -999.0
01-07-2022, 00:04:46,    204,    0.0,   10.1,   0.00,   0.00, 1010.7,   89.8, -999.0
01-07-2022, 00:04:56,    204,    0.0,   10.1,   0.00,   0.00, 1010.7,   89.8, -999.0
01-07-2022, 00:05:06,    204,    0.0,   10.1,   0.00,   0.00, 1010.7,   89.8, -999.0
01-07-2022, 00:05:15,    204,    0.0,   10.2,   0.00,   0.00, 1010.7,   89.8, -999.0
01-07-2022, 00:05:26,    203,    0.0,   10.2,   0.00,   0.00, 1010.7,   89.8, -999.0
01-07-2022, 00:05:36,    203,    0.0,   10.3,   0.00,   0.00, 1010.7,   89.9, -999.0
01-07-2022, 00:05:45,    204,    0.0,   10.2,   0.00,   0.00, 1010.7,   89.9, -999.0
01-07-2022, 00:05:55,    204,    0.0,   10.2,   0.00,   0.00, 1010.7,   89.9, -999.0
01-07-2022, 00:06:06,    204,    0.0,   10.2,   0.00,   0.00, 1010.7,   89.8, -999.0
01-07-2022, 00:06:15,    203,    0.0,   10.1,   0.00,   0.00, 1010.7,   89.9, -999.0
01-07-2022, 00:06:25,    203,    0.0,   10.2,   0.00,   0.00, 1010.7,   89.8, -999.0
01-07-2022, 00:06:35,    203,    0.0,   10.3,   0.00,   0.00, 1010.7,   89.8, -999.0
01-07-2022, 00:06:45,    203,    0.0,   10.2,   0.00,   0.00, 1010.7,   89.8, -999.0
01-07-2022, 00:06:55,    203,    0.0,   10.2,   0.00,   0.00, 1010.7,   89.8, -999.0
01-07-2022, 00:07:05,    203,    0.0,   10.2,   0.00,   0.00, 1010.7,   90.0, -999.0
01-07-2022, 00:07:15,    203,    0.0,   10.2,   0.00,   0.00, 1010.7,   89.9, -999.0
01-07-2022, 00:07:25,    203,    0.0,   10.2,   0.00,   0.00, 1010.7,   89.8, -999.0
01-07-2022, 00:07:35,    203,    0.0,   10.2,   0.00,   0.00, 1010.7,   89.8, -999.0
01-07-2022, 00:07:45,    203,    0.0,   10.2,   0.00,   0.00, 1010.6,   89.8, -999.0
01-07-2022, 00:07:55,    203,    0.0,   10.2,   0.00,   0.00, 1010.7,   89.8, -999.0
01-07-2022, 00:08:05,    203,    0.0,   10.2,   0.00,   0.00, 1010.7,   89.8, -999.0
01-07-2022, 00:08:15,    204,    0.0,   10.2,   0.00,   0.00, 1010.7,   89.8, -999.0
01-07-2022, 00:08:24,    203,    0.0,   10.2,   0.00,   0.00, 1010.7,   89.7, -999.0
01-07-2022, 00:08:36,    203,    0.0,   10.2,   0.00,   0.00, 1010.7,   89.9, -999.0
01-07-2022, 00:08:45,    203,    0.0,   10.2,   0.00,   0.00, 1010.7,   89.9, -999.0
01-07-2022, 00:08:54,    203,    0.0,   10.2,   0.00,   0.00, 1010.7,   89.8, -999.0
01-07-2022, 00:09:05,    204,    0.0,   10.2,   0.00,   0.00, 1010.7,   89.9, -999.0
01-07-2022, 00:09:14,    203,    0.0,   10.2,   0.00,   0.00, 1010.7,   89.8, -999.0
01-07-2022, 00:09:24,    203,    0.0,   10.1,   0.00,   0.00, 1010.7,   89.8, -999.0
01-07-2022, 00:09:34,    203,    0.0,   10.1,   0.00,   0.00, 1010.7,   89.8, -999.0
01-07-2022, 00:09:44,    203,    0.0,   10.2,   0.00,   0.00, 1010.7,   89.8, -999.0
01-07-2022, 00:09:54,    203,    0.0,   10.2,   0.00,   0.00, 1010.7,   89.9, -999.0
01-07-2022, 00:10:04,    203,    0.0,   10.2,   0.00,   0.00, 1010.7,   89.9, -999.0
01-07-2022, 00:10:14,    203,    0.0,   10.2,   0.00,   0.00, 1010.7,   89.9, -999.0
01-07-2022, 00:10:24,    203,    0.0,   10.2,   0.00,   0.00, 1010.7,   89.9, -999.0
01-07-2022, 00:10:34,    203,    0.0,   10.3,   0.00,   0.00, 1010.7,   90.0, -999.0
01-07-2022, 00:10:44,    203,    0.0,   10.3,   0.00,   0.00, 1010.7,   90.0, -999.0
01-07-2022, 00:10:54,    203,    0.0,   10.3,   0.00,   0.00, 1010.6,   90.0, -999.0
01-07-2022, 00:11:04,    203,    0.0,   10.3,   0.00,   0.00, 1010.7,   90.0, -999.0
01-07-2022, 00:11:14,    203,    0.0,   10.2,   0.00,   0.00, 1010.6,   90.0, -999.0
01-07-2022, 00:11:24,    203,    0.0,   10.2,   0.00,   0.00, 1010.7,   89.9, -999.0
01-07-2022, 00:11:34,    203,    0.0,   10.2,   0.00,   0.00, 1010.7,   89.9, -999.0
01-07-2022, 00:11:44,    203,    0.6,   10.3,   0.00,   0.00, 1010.7,   90.2, -999.0
01-07-2022, 00:11:54,    203,    0.5,   10.3,   0.00,   0.00, 1010.8,   90.2, -999.0
01-07-2022, 00:12:03,    203,    0.1,   10.3,   0.00,   0.00, 1010.7,   90.0, -999.0
01-07-2022, 00:12:14,    203,    0.2,   10.3,   0.00,   0.00, 1010.8,   90.0, -999.0
01-07-2022, 00:12:23,    203,    0.1,   10.2,   0.00,   0.00, 1010.8,   89.9, -999.0
01-07-2022, 00:12:33,    203,    0.0,   10.2,   0.00,   0.00, 1010.7,   89.8, -999.0
01-07-2022, 00:12:43,    203,    0.0,   10.2,   0.00,   0.00, 1010.6,   89.9, -999.0
01-07-2022, 00:12:53,    203,    0.0,   10.2,   0.00,   0.00, 1010.7,   89.9, -999.0
01-07-2022, 00:13:03,    202,    0.0,   10.2,   0.00,   0.00, 1010.7,   90.1, -999.0
01-07-2022, 00:13:13,    203,    0.0,   10.2,   0.00,   0.00, 1010.7,   90.0, -999.0
01-07-2022, 00:13:23,    203,    0.0,   10.2,   0.00,   0.00, 1010.6,   90.0, -999.0
01-07-2022, 00:13:33,    203,    0.0,   10.2,   0.00,   0.00, 1010.7,   90.0, -999.0
01-07-2022, 00:13:43,    203,    0.0,   10.2,   0.00,   0.00, 1010.7,   90.0, -999.0
01-07-2022, 00:13:53,    203,    0.0,   10.3,   0.00,   0.00, 1010.7,   90.0, -999.0
01-07-2022, 00:14:03,    203,    0.0,   10.2,   0.00,   0.00, 1010.7,   90.1, -999.0
01-07-2022, 00:14:13,    203,    0.0,   10.2,   0.00,   0.00, 1010.7,   90.0, -999.0
01-07-2022, 00:14:23,    203,    0.0,   10.2,   0.00,   0.00, 1010.7,   90.0, -999.0
01-07-2022, 00:14:33,    203,    0.0,   10.2,   0.00,   0.00, 1010.7,   90.0, -999.0
01-07-2022, 00:14:43,    203,    0.0,   10.3,   0.00,   0.00, 1010.7,   90.0, -999.0
01-07-2022, 00:14:53,    203,    0.0,   10.3,   0.00,   0.00, 1010.7,   90.2, -999.0
01-07-2022, 00:15:02,    203,    0.1,   10.2,   0.00,   0.00, 1010.7,   90.2, -999.0
01-07-2022, 00:15:13,    203,    0.0,   10.3,   0.00,   0.00, 1010.6,   90.0, -999.0
01-07-2022, 00:15:23,    203,    0.0,   10.2,   0.00,   0.00, 1010.6,   90.1, -999.0
01-07-2022, 00:15:32,    203,    0.0,   10.2,   0.00,   0.00, 1010.6,   90.0, -999.0
01-07-2022, 00:15:42,    203,    0.0,   10.2,   0.00,   0.00, 1010.6,   90.0, -999.0
01-07-2022, 00:15:53,    203,    0.0,   10.3,   0.00,   0.00, 1010.7,   90.1, -999.0
01-07-2022, 00:16:02,    203,    0.3,   10.3,   0.00,   0.00, 1010.7,   90.5, -999.0
01-07-2022, 00:16:12,    203,    0.1,   10.3,   0.00,   0.00, 1010.7,   90.3, -999.0
01-07-2022, 00:16:22,    203,    0.0,   10.3,   0.00,   0.00, 1010.6,   90.2, -999.0
01-07-2022, 00:16:32,    203,    0.0,   10.3,   0.00,   0.00, 1010.6,   90.1, -999.0
01-07-2022, 00:16:42,    203,    0.0,   10.2,   0.00,   0.00, 1010.6,   90.2, -999.0
01-07-2022, 00:16:52,    203,    0.0,   10.2,   0.00,   0.00, 1010.7,   90.2, -999.0
01-07-2022, 00:17:02,    203,    0.0,   10.3,   0.00,   0.00, 1010.6,   90.3, -999.0
01-07-2022, 00:17:12,    203,    0.0,   10.2,   0.00,   0.00, 1010.6,   90.2, -999.0
01-07-2022, 00:17:22,    202,    0.0,   10.3,   0.00,   0.00, 1010.6,   90.2, -999.0
01-07-2022, 00:17:32,    202,    0.0,   10.3,   0.00,   0.00, 1010.6,   90.1, -999.0
01-07-2022, 00:17:42,    203,    0.0,   10.3,   0.00,   0.00, 1010.6,   90.2, -999.0
01-07-2022, 00:17:52,    203,    0.0,   10.2,   0.00,   0.00, 1010.6,   90.2, -999.0
01-07-2022, 00:18:02,    203,    0.0,   10.3,   0.00,   0.00, 1010.6,   90.1, -999.0
01-07-2022, 00:18:11,    202,    0.0,   10.2,   0.00,   0.00, 1010.6,   90.1, -999.0
01-07-2022, 00:18:22,    203,    0.0,   10.2,   0.00,   0.00, 1010.6,   90.1, -999.0
01-07-2022, 00:18:32,    203,    0.0,   10.3,   0.00,   0.00, 1010.6,   90.2, -999.0
01-07-2022, 00:18:41,    203,    0.0,   10.2,   0.00,   0.00, 1010.6,   90.2, -999.0
01-07-2022, 00:18:51,    203,    0.0,   10.3,   0.00,   0.00, 1010.6,   90.2, -999.0
01-07-2022, 00:19:02,    203,    0.0,   10.3,   0.00,   0.00, 1010.6,   90.2, -999.0
01-07-2022, 00:19:11,    203,    0.0,   10.2,   0.00,   0.00, 1010.6,   90.2, -999.0
01-07-2022, 00:19:21,    202,    0.0,   10.2,   0.00,   0.00, 1010.6,   90.1, -999.0
01-07-2022, 00:19:31,    202,    0.0,   10.3,   0.00,   0.00, 1010.6,   90.2, -999.0
01-07-2022, 00:19:41,    202,    0.0,   10.3,   0.00,   0.00, 1010.6,   90.2, -999.0
01-07-2022, 00:19:51,    203,    0.0,   10.3,   0.00,   0.00, 1010.6,   90.2, -999.0
01-07-2022, 00:20:01,    203,    0.0,   10.3,   0.00,   0.00, 1010.6,   90.2, -999.0
01-07-2022, 00:20:11,    203,    0.0,   10.3,   0.00,   0.00, 1010.6,   90.2, -999.0
01-07-2022, 00:20:21,    203,    0.0,   10.3,   0.00,   0.00, 1010.7,   90.3, -999.0
01-07-2022, 00:20:31,    202,    0.0,   10.3,   0.00,   0.00, 1010.6,   90.2, -999.0
01-07-2022, 00:20:41,    203,    0.0,   10.3,   0.00,   0.00, 1010.6,   90.2, -999.0
01-07-2022, 00:20:51,    203,    0.0,   10.3,   0.00,   0.00, 1010.6,   90.3, -999.0
01-07-2022, 00:21:01,    203,    0.0,   10.3,   0.00,   0.00, 1010.6,   90.2, -999.0
01-07-2022, 00:21:11,    202,    0.0,   10.3,   0.00,   0.00, 1010.6,   90.3, -999.0
01-07-2022, 00:21:20,    203,    0.0,   10.3,   0.00,   0.00, 1010.6,   90.3, -999.0
01-07-2022, 00:21:31,    202,    0.0,   10.3,   0.00,   0.00, 1010.6,   90.5, -999.0
01-07-2022, 00:21:41,    203,    0.0,   10.3,   0.00,   0.00, 1010.6,   90.3, -999.0
01-07-2022, 00:21:50,    203,    0.0,   10.3,   0.00,   0.00, 1010.6,   90.3, -999.0
01-07-2022, 00:22:01,    203,    0.0,   10.3,   0.00,   0.00, 1010.6,   90.4, -999.0
01-07-2022, 00:22:11,    203,    0.0,   10.3,   0.00,   0.00, 1010.6,   90.3, -999.0
01-07-2022, 00:22:20,    203,    0.0,   10.3,   0.00,   0.00, 1010.6,   90.3, -999.0
01-07-2022, 00:22:30,    203,    0.0,   10.3,   0.00,   0.00, 1010.6,   90.2, -999.0
01-07-2022, 00:22:40,    202,    0.0,   10.3,   0.00,   0.00, 1010.6,   90.3, -999.0
01-07-2022, 00:22:50,    203,    0.0,   10.3,   0.00,   0.00, 1010.6,   90.2, -999.0
01-07-2022, 00:23:00,    203,    0.0,   10.3,   0.00,   0.00, 1010.6,   90.3, -999.0
01-07-2022, 00:23:10,    203,    0.0,   10.3,   0.00,   0.00, 1010.6,   90.2, -999.0
01-07-2022, 00:23:20,    202,    0.0,   10.3,   0.00,   0.00, 1010.6,   90.3, -999.0
01-07-2022, 00:23:30,    203,    0.0,   10.3,   0.00,   0.00, 1010.6,   90.3, -999.0
01-07-2022, 00:23:40,    202,    0.0,   10.3,   0.00,   0.00, 1010.6,   90.2, -999.0
01-07-2022, 00:23:50,    203,    0.0,   10.3,   0.00,   0.00, 1010.6,   90.3, -999.0
01-07-2022, 00:24:00,    203,    0.0,   10.3,   0.00,   0.00, 1010.6,   90.3, -999.0
01-07-2022, 00:24:10,    203,    0.0,   10.3,   0.00,   0.00, 1010.6,   90.3, -999.0
01-07-2022, 00:24:20,    203,    0.0,   10.3,   0.00,   0.00, 1010.6,   90.3, -999.0
01-07-2022, 00:24:30,    203,    0.0,   10.2,   0.00,   0.00, 1010.6,   90.3, -999.0
01-07-2022, 00:24:40,    203,    0.0,   10.2,   0.00,   0.00, 1010.6,   90.3, -999.0
01-07-2022, 00:24:50,    202,    0.0,   10.3,   0.00,   0.00, 1010.6,   90.4, -999.0
01-07-2022, 00:24:59,    226,    0.1,   10.3,   0.00,   0.00, 1010.7,   90.5, -999.0
01-07-2022, 00:25:10,    220,    0.0,   10.3,   0.00,   0.00, 1010.6,   90.3, -999.0
01-07-2022, 00:25:20,    221,    0.0,   10.3,   0.00,   0.00, 1010.6,   90.2, -999.0
01-07-2022, 00:25:29,    221,    0.0,   10.3,   0.00,   0.00, 1010.6,   90.3, -999.0
01-07-2022, 00:25:39,    220,    0.0,   10.3,   0.00,   0.00, 1010.6,   90.3, -999.0
01-07-2022, 00:25:49,    220,    0.0,   10.2,   0.00,   0.00, 1010.6,   90.3, -999.0
01-07-2022, 00:25:59,    220,    0.0,   10.3,   0.00,   0.00, 1010.6,   90.3, -999.0
01-07-2022, 00:26:09,    219,    0.0,   10.3,   0.00,   0.00, 1010.6,   90.4, -999.0
01-07-2022, 00:26:19,    219,    0.0,   10.3,   0.00,   0.00, 1010.6,   90.4, -999.0
01-07-2022, 00:26:29,    217,    0.0,   10.3,   0.00,   0.00, 1010.6,   90.4, -999.0
01-07-2022, 00:26:39,    217,    0.0,   10.3,   0.00,   0.00, 1010.6,   90.3, -999.0
01-07-2022, 00:26:49,    197,    0.0,   10.3,   0.00,   0.00, 1010.6,   90.4, -999.0
01-07-2022, 00:26:59,    197,    0.0,   10.3,   0.00,   0.00, 1010.6,   90.3, -999.0
01-07-2022, 00:27:09,    196,    0.0,   10.3,   0.00,   0.00, 1010.6,   90.2, -999.0
01-07-2022, 00:27:19,    197,    0.0,   10.3,   0.00,   0.00, 1010.6,   90.3, -999.0
01-07-2022, 00:27:29,    197,    0.0,   10.3,   0.00,   0.00, 1010.6,   90.3, -999.0
01-07-2022, 00:27:39,    197,    0.0,   10.2,   0.00,   0.00, 1010.6,   90.3, -999.0
01-07-2022, 00:27:49,    197,    0.0,   10.3,   0.00,   0.00, 1010.6,   90.3, -999.0
01-07-2022, 00:27:59,    197,    0.0,   10.3,   0.00,   0.00, 1010.7,   90.4, -999.0
01-07-2022, 00:28:08,    197,    0.0,   10.3,   0.00,   0.00, 1010.6,   90.4, -999.0
01-07-2022, 00:28:19,    197,    0.2,   10.4,   0.00,   0.00, 1010.7,   90.5, -999.0
01-07-2022, 00:28:29,    203,    0.0,   10.3,   0.00,   0.00, 1010.6,   90.3, -999.0
01-07-2022, 00:28:38,    204,    0.2,   10.3,   0.00,   0.00, 1010.7,   90.7, -999.0
01-07-2022, 00:28:49,    203,    0.0,   10.3,   0.00,   0.00, 1010.6,   90.3, -999.0
01-07-2022, 00:28:58,    203,    0.0,   10.3,   0.00,   0.00, 1010.6,   90.3, -999.0
01-07-2022, 00:29:08,    204,    0.0,   10.3,   0.00,   0.00, 1010.6,   90.4, -999.0
01-07-2022, 00:29:18,    203,    0.0,   10.3,   0.00,   0.00, 1010.6,   90.4, -999.0
01-07-2022, 00:29:28,    204,    0.0,   10.3,   0.00,   0.00, 1010.6,   90.4, -999.0
01-07-2022, 00:29:38,    203,    0.0,   10.3,   0.00,   0.00, 1010.6,   90.5, -999.0
01-07-2022, 00:29:48,    204,    0.0,   10.3,   0.00,   0.00, 1010.6,   90.5, -999.0
01-07-2022, 00:29:58,    203,    0.0,   10.3,   0.00,   0.00, 1010.6,   90.5, -999.0
01-07-2022, 00:30:08,    204,    0.0,   10.3,   0.00,   0.00, 1010.7,   90.5, -999.0
01-07-2022, 00:30:18,    203,    0.0,   10.3,   0.00,   0.00, 1010.6,   90.6, -999.0
01-07-2022, 00:30:28,    203,    0.0,   10.3,   0.00,   0.00, 1010.6,   90.7, -999.0
01-07-2022, 00:30:38,    203,    0.0,   10.3,   0.00,   0.00, 1010.6,   90.6, -999.0
01-07-2022, 00:30:48,    203,    0.0,   10.3,   0.00,   0.00, 1010.6,   90.6, -999.0
01-07-2022, 00:30:58,    204,    0.0,   10.3,   0.00,   0.00, 1010.6,   90.7, -999.0
01-07-2022, 00:31:08,    204,    0.0,   10.3,   0.00,   0.00, 1010.6,   90.7, -999.0
01-07-2022, 00:31:18,    203,    0.0,   10.3,   0.00,   0.00, 1010.7,   90.6, -999.0
01-07-2022, 00:31:28,    203,    0.0,   10.3,   0.00,   0.00, 1010.6,   90.6, -999.0
01-07-2022, 00:31:37,    203,    0.0,   10.3,   0.00,   0.00, 1010.7,   90.6, -999.0
01-07-2022, 00:31:47,    204,    0.0,   10.3,   0.00,   0.00, 1010.7,   90.6, -999.0
01-07-2022, 00:31:58,    204,    0.0,   10.3,   0.00,   0.00, 1010.6,   90.6, -999.0
01-07-2022, 00:32:07,    204,    0.0,   10.3,   0.00,   0.00, 1010.7,   90.6, -999.0
01-07-2022, 00:32:17,    204,    0.0,   10.3,   0.00,   0.00, 1010.7,   90.6, -999.0
01-07-2022, 00:32:27,    204,    0.0,   10.3,   0.00,   0.00, 1010.7,   90.5, -999.0
01-07-2022, 00:32:37,    205,    0.0,   10.4,   0.00,   0.00, 1010.7,   90.6, -999.0
01-07-2022, 00:32:47,    205,    0.0,   10.3,   0.00,   0.00, 1010.7,   90.7, -999.0
01-07-2022, 00:32:57,    205,    0.0,   10.3,   0.00,   0.00, 1010.6,   90.6, -999.0
01-07-2022, 00:33:07,    206,    0.0,   10.3,   0.00,   0.00, 1010.6,   90.6, -999.0
01-07-2022, 00:33:17,    205,    0.0,   10.3,   0.00,   0.00, 1010.7,   90.6, -999.0
01-07-2022, 00:33:27,    206,    0.0,   10.3,   0.00,   0.00, 1010.6,   90.6, -999.0
01-07-2022, 00:33:37,    205,    0.0,   10.3,   0.00,   0.00, 1010.7,   90.6, -999.0
01-07-2022, 00:33:47,    214,    0.0,   10.3,   0.00,   0.00, 1010.6,   90.7, -999.0
01-07-2022, 00:33:59,    215,    0.0,   10.3,   0.00,   0.00, 1010.6,   90.7, -999.0
01-07-2022, 00:34:07,    214,    0.0,   10.3,   0.00,   0.00, 1010.7,   90.7, -999.0
01-07-2022, 00:34:17,    214,    0.0,   10.3,   0.00,   0.00, 1010.6,   90.7, -999.0
01-07-2022, 00:34:27,    214,    0.0,   10.4,   0.00,   0.00, 1010.6,   90.8, -999.0
01-07-2022, 00:34:37,    214,    0.0,   10.3,   0.00,   0.00, 1010.6,   90.8, -999.0
01-07-2022, 00:34:46,    214,    0.0,   10.4,   0.00,   0.00, 1010.6,   90.8, -999.0
01-07-2022, 00:34:56,    214,    0.0,   10.3,   0.00,   0.00, 1010.6,   90.8, -999.0
01-07-2022, 00:35:07,    214,    0.0,   10.3,   0.00,   0.00, 1010.6,   90.8, -999.0
01-07-2022, 00:35:16,    214,    0.0,   10.4,   0.00,   0.00, 1010.6,   90.8, -999.0
01-07-2022, 00:35:26,    214,    0.0,   10.3,   0.00,   0.00, 1010.6,   90.8, -999.0
01-07-2022, 00:35:36,    214,    0.0,   10.4,   0.00,   0.00, 1010.6,   90.8, -999.0
01-07-2022, 00:35:46,    214,    0.0,   10.4,   0.00,   0.00, 1010.6,   90.8, -999.0
01-07-2022, 00:35:56,    211,    0.0,   10.3,   0.00,   0.00, 1010.6,   90.7, -999.0
01-07-2022, 00:36:06,    211,    0.0,   10.3,   0.00,   0.00, 1010.6,   90.7, -999.0
01-07-2022, 00:36:16,    211,    0.0,   10.4,   0.00,   0.00, 1010.6,   90.8, -999.0
01-07-2022, 00:36:26,    212,    0.0,   10.2,   0.00,   0.00, 1010.6,   90.8, -999.0
01-07-2022, 00:36:36,    212,    0.0,   10.3,   0.00,   0.00, 1010.6,   90.7, -999.0
01-07-2022, 00:36:46,    212,    0.0,   10.3,   0.00,   0.00, 1010.6,   90.8, -999.0
01-07-2022, 00:36:56,    211,    0.0,   10.3,   0.00,   0.00, 1010.6,   90.7, -999.0
01-07-2022, 00:37:06,    211,    0.0,   10.3,   0.00,   0.00, 1010.6,   90.8, -999.0
01-07-2022, 00:37:16,    212,    0.0,   10.3,   0.00,   0.00, 1010.6,   90.8, -999.0
01-07-2022, 00:37:26,    212,    0.0,   10.5,   0.00,   0.00, 1010.6,   90.8, -999.0
01-07-2022, 00:37:36,    212,    0.0,   10.3,   0.00,   0.00, 1010.6,   90.9, -999.0
01-07-2022, 00:37:46,    210,    0.0,   10.4,   0.00,   0.00, 1010.6,   90.9, -999.0
01-07-2022, 00:37:55,    210,    0.0,   10.4,   0.00,   0.00, 1010.6,   90.9, -999.0
01-07-2022, 00:38:06,    210,    0.0,   10.4,   0.00,   0.00, 1010.6,   90.8, -999.0
01-07-2022, 00:38:16,    209,    0.0,   10.4,   0.00,   0.00, 1010.6,   90.8, -999.0
01-07-2022, 00:38:25,    209,    0.0,   10.3,   0.00,   0.00, 1010.6,   90.9, -999.0
01-07-2022, 00:38:35,    209,    0.0,   10.3,   0.00,   0.00, 1010.6,   90.7, -999.0
01-07-2022, 00:38:46,    208,    0.0,   10.4,   0.00,   0.00, 1010.6,   90.8, -999.0
01-07-2022, 00:38:55,    209,    0.0,   10.4,   0.00,   0.00, 1010.6,   90.7, -999.0
01-07-2022, 00:39:05,    209,    0.0,   10.3,   0.00,   0.00, 1010.6,   90.8, -999.0
01-07-2022, 00:39:15,    209,    0.0,   10.3,   0.00,   0.00, 1010.6,   90.8, -999.0
01-07-2022, 00:39:25,    209,    0.0,   10.3,   0.00,   0.00, 1010.6,   90.8, -999.0
01-07-2022, 00:39:35,    209,    0.0,   10.3,   0.00,   0.00, 1010.6,   90.8, -999.0
01-07-2022, 00:39:45,    209,    0.0,   10.3,   0.00,   0.00, 1010.6,   90.8, -999.0
01-07-2022, 00:39:55,    209,    0.0,   10.3,   0.00,   0.00, 1010.6,   90.8, -999.0
01-07-2022, 00:40:05,    209,    0.0,   10.3,   0.00,   0.00, 1010.6,   90.9, -999.0
01-07-2022, 00:40:15,    209,    0.0,   10.3,   0.00,   0.00, 1010.6,   90.9, -999.0
01-07-2022, 00:40:25,    209,    0.2,   10.3,   0.00,   0.00, 1010.7,   91.1, -999.0
01-07-2022, 00:40:35,    211,    0.5,   10.5,   0.00,   0.00, 1010.8,   91.2, -999.0
01-07-2022, 00:40:45,    211,    0.0,   10.4,   0.00,   0.00, 1010.6,   90.8, -999.0
01-07-2022, 00:40:55,    211,    0.0,   10.3,   0.00,   0.00, 1010.6,   90.8, -999.0
01-07-2022, 00:41:05,    210,    0.0,   10.3,   0.00,   0.00, 1010.6,   90.8, -999.0
01-07-2022, 00:41:15,    211,    0.0,   10.3,   0.00,   0.00, 1010.6,   90.8, -999.0
01-07-2022, 00:41:25,    211,    0.0,   10.4,   0.00,   0.00, 1010.6,   90.9, -999.0
01-07-2022, 00:41:34,    211,    0.0,   10.4,   0.00,   0.00, 1010.6,   90.9, -999.0
01-07-2022, 00:41:44,    211,    0.0,   10.3,   0.00,   0.00, 1010.6,   90.8, -999.0
01-07-2022, 00:41:55,    211,    0.0,   10.3,   0.00,   0.00, 1010.6,   90.9, -999.0
01-07-2022, 00:42:04,    211,    0.0,   10.3,   0.00,   0.00, 1010.6,   90.9, -999.0
01-07-2022, 00:42:14,    211,    0.0,   10.3,   0.00,   0.00, 1010.6,   90.9, -999.0
01-07-2022, 00:42:25,    211,    0.0,   10.3,   0.00,   0.00, 1010.6,   90.9, -999.0
01-07-2022, 00:42:34,    210,    0.0,   10.4,   0.00,   0.00, 1010.6,   91.0, -999.0
01-07-2022, 00:42:44,    210,    0.0,   10.4,   0.00,   0.00, 1010.6,   90.9, -999.0
01-07-2022, 00:42:54,    210,    0.0,   10.3,   0.00,   0.00, 1010.6,   91.0, -999.0
01-07-2022, 00:43:04,    209,    0.0,   10.3,   0.00,   0.00, 1010.6,   91.0, -999.0
01-07-2022, 00:43:14,    210,    0.0,   10.3,   0.00,   0.00, 1010.6,   91.0, -999.0
01-07-2022, 00:43:24,    209,    0.0,   10.4,   0.00,   0.00, 1010.6,   90.9, -999.0
01-07-2022, 00:43:34,    209,    0.0,   10.3,   0.00,   0.00, 1010.6,   91.0, -999.0
01-07-2022, 00:43:44,    210,    0.0,   10.4,   0.00,   0.00, 1010.6,   91.0, -999.0
01-07-2022, 00:43:54,    210,    0.0,   10.4,   0.00,   0.00, 1010.6,   91.0, -999.0
01-07-2022, 00:44:04,    209,    0.0,   10.4,   0.00,   0.00, 1010.6,   91.0, -999.0
01-07-2022, 00:44:14,    210,    0.0,   10.3,   0.00,   0.00, 1010.6,   91.1, -999.0
01-07-2022, 00:44:24,    210,    0.0,   10.3,   0.00,   0.00, 1010.6,   91.0, -999.0
01-07-2022, 00:44:34,    209,    0.0,   10.4,   0.00,   0.00, 1010.6,   91.1, -999.0
01-07-2022, 00:44:43,    210,    0.0,   10.4,   0.00,   0.00, 1010.6,   91.2, -999.0
01-07-2022, 00:44:53,    210,    0.0,   10.4,   0.00,   0.00, 1010.6,   91.0, -999.0
01-07-2022, 00:45:04,    210,    0.0,   10.4,   0.00,   0.00, 1010.6,   91.1, -999.0
01-07-2022, 00:45:13,    209,    0.0,   10.4,   0.00,   0.00, 1010.6,   91.1, -999.0
01-07-2022, 00:45:23,    209,    0.0,   10.4,   0.00,   0.00, 1010.6,   91.1, -999.0
01-07-2022, 00:45:34,    213,    0.0,   10.4,   0.00,   0.00, 1010.6,   91.2, -999.0
01-07-2022, 00:45:43,    213,    0.0,   10.4,   0.00,   0.00, 1010.6,   91.2, -999.0
01-07-2022, 00:45:53,    212,    0.0,   10.4,   0.00,   0.00, 1010.6,   91.1, -999.0
01-07-2022, 00:46:03,    213,    0.0,   10.4,   0.00,   0.00, 1010.6,   91.2, -999.0
01-07-2022, 00:46:13,    213,    0.0,   10.4,   0.00,   0.00, 1010.6,   91.2, -999.0
01-07-2022, 00:46:23,    212,    0.0,   10.4,   0.00,   0.00, 1010.6,   91.1, -999.0
01-07-2022, 00:46:33,    213,    0.0,   10.4,   0.00,   0.00, 1010.6,   91.1, -999.0
01-07-2022, 00:46:43,    212,    0.0,   10.4,   0.00,   0.00, 1010.6,   91.1, -999.0